TimeAKDT,TemperatureF,Dew PointF,Humidity,Sea Level PressureIn,VisibilityMPH,Wind Direction,Wind SpeedMPH,Gust SpeedMPH,PrecipitationIn,Events,Conditions,WindDirDegrees,DateUTC
12:53 AM,55.0,51.1,86,29.99,10.0,ESE,4.6,-,N/A,,Scattered Clouds,110,2013-08-20 08:53:00
1:53 AM,55.9,52.0,87,30.01,10.0,East,3.5,-,N/A,,Overcast,100,2013-08-20 09:53:00
2:44 AM,54.0,51.1,90,30.01,10.0,East,4.6,-,N/A,,Scattered Clouds,100,2013-08-20 10:44:00
2:53 AM,55.0,51.1,86,30.01,10.0,East,5.8,-,N/A,,Scattered Clouds,90,2013-08-20 10:53:00
3:53 AM,55.0,51.1,86,30.02,10.0,ESE,5.8,-,N/A,,Mostly Cloudy,110,2013-08-20 11:53:00
4:07 AM,55.9,51.1,84,30.03,10.0,ESE,5.8,-,N/A,,Mostly Cloudy,120,2013-08-20 12:07:00
4:49 AM,53.6,51.8,94,30.03,10.0,East,3.5,-,N/A,,Scattered Clouds,100,2013-08-20 12:49:00
4:53 AM,54.0,51.1,90,30.03,10.0,East,4.6,-,N/A,,Scattered Clouds,90,2013-08-20 12:53:00
5:53 AM,54.0,50.0,86,30.04,10.0,East,4.6,-,N/A,,Mostly Cloudy,80,2013-08-20 13:53:00
6:17 AM,54.0,30.0,40,30.04,10.0,Calm,Calm,-,N/A,,Mostly Cloudy,0,2013-08-20 14:17:00
6:49 AM,55.4,30.2,38,30.05,10.0,East,4.6,-,N/A,,Mostly Cloudy,80,2013-08-20 14:49:00
6:53 AM,55.0,30.9,40,30.05,10.0,East,3.5,-,N/A,,Mostly Cloudy,80,2013-08-20 14:53:00
7:00 AM,55.0,30.9,40,30.05,10.0,East,3.5,-,N/A,,Mostly Cloudy,80,2013-08-20 15:00:00
7:13 AM,55.0,30.9,40,30.05,10.0,Calm,Calm,-,N/A,,Mostly Cloudy,0,2013-08-20 15:13:00
7:53 AM,57.0,32.0,39,30.06,10.0,Calm,Calm,-,N/A,,Mostly Cloudy,0,2013-08-20 15:53:00
8:22 AM,57.0,57.0,100,30.06,10.0,Calm,Calm,-,N/A,,Mostly Cloudy,0,2013-08-20 16:22:00
8:53 AM,57.9,-9999,N/A,30.08,10.0,Calm,Calm,-,N/A,,Mostly Cloudy,0,2013-08-20 16:53:00
9:53 AM,57.9,-9999,N/A,30.09,10.0,Calm,Calm,-,N/A,,Mostly Cloudy,0,2013-08-20 17:53:00
10:53 AM,61.0,-9999,N/A,30.10,10.0,SW,5.8,-,N/A,,Mostly Cloudy,230,2013-08-20 18:53:00
11:53 AM,63.0,-9999,N/A,30.11,10.0,SSW,9.2,-,N/A,,Overcast,210,2013-08-20 19:53:00
12:53 PM,62.1,-9999,N/A,30.13,10.0,SSW,10.4,-,N/A,,Mostly Cloudy,210,2013-08-20 20:53:00
1:53 PM,64.0,-9999,N/A,30.13,10.0,SW,13.8,-,N/A,,Mostly Cloudy,220,2013-08-20 21:53:00
2:53 PM,63.0,15.1,16,30.14,10.0,SW,12.7,-,N/A,,Overcast,220,2013-08-20 22:53:00
3:15 PM,62.1,-9999,N/A,30.13,10.0,SW,12.7,-,N/A,,Mostly Cloudy,220,2013-08-20 23:15:00
3:53 PM,62.1,-9999,N/A,30.14,10.0,WSW,11.5,-,N/A,,Partly Cloudy,240,2013-08-20 23:53:00
4:53 PM,63.0,16.0,16,30.14,10.0,SW,12.7,-,N/A,,Mostly Cloudy,220,2013-08-21 00:53:00
4:55 PM,63.0,-9999,N/A,30.14,10.0,SW,12.7,-,N/A,,Mostly Cloudy,220,2013-08-21 00:55:00
5:53 PM,63.0,-9999,N/A,30.13,10.0,NNW,5.8,-,N/A,,Mostly Cloudy,340,2013-08-21 01:53:00
6:53 PM,61.0,-9999,N/A,30.11,10.0,WNW,5.8,-,N/A,,Scattered Clouds,300,2013-08-21 02:53:00
7:53 PM,60.1,-9999,N/A,30.11,10.0,NW,5.8,-,N/A,,Scattered Clouds,320,2013-08-21 03:53:00
8:53 PM,60.1,-9999,N/A,30.12,10.0,NNW,4.6,-,N/A,,Mostly Cloudy,330,2013-08-21 04:53:00
9:53 PM,59.0,-9999,N/A,30.12,10.0,NNW,5.8,-,N/A,,Mostly Cloudy,340,2013-08-21 05:53:00
10:53 PM,59.0,-9999,N/A,30.11,10.0,NNW,4.6,-,N/A,,Overcast,330,2013-08-21 06:53:00
11:53 PM,57.9,-9999,N/A,30.10,10.0,East,3.5,-,N/A,,Overcast,100,2013-08-21 07:53:00